| time (UTC) | temp C | wind direction | speed KPH | gust KPH | rain 1hr cm | rain 24hr cm | rain mn cm | humidity % | barometer mb |
| 20260508033705 | 0 | 137 | 0.0 | 4.8 | 0.00 | 0.00 | 0.00 | 93 | 1011.8 |
| 20260508033204 | 0 | 137 | 1.6 | 1.6 | 0.00 | 0.00 | 0.00 | 93 | 1011.7 |
| 20260508032705 | 0 | 135 | 0.0 | 1.6 | 0.00 | 0.00 | 0.00 | 93 | 1011.8 |
| 20260508032204 | 0 | 135 | 0.0 | 0.0 | 0.00 | 0.00 | 0.00 | 93 | 1011.8 |
| 20260508031705 | 0 | 135 | 0.0 | 1.6 | 0.00 | 0.00 | 0.00 | 93 | 1011.9 |
| 20260508031204 | 0 | 135 | 0.0 | 1.6 | 0.00 | 0.00 | 0.00 | 93 | 1011.9 |
| 20260508030704 | 0 | 135 | 0.0 | 1.6 | 0.00 | 0.00 | 0.00 | 93 | 1012.1 |
| 20260508030204 | 0 | 135 | 0.0 | 0.0 | 0.00 | 0.00 | 0.00 | 93 | 1012.1 |
| 20260508025710 | 0 | 135 | 0.0 | 3.2 | 0.00 | 0.00 | 0.00 | 93 | 1012.2 |
| 20260508025204 | 0 | 135 | 0.0 | 3.2 | 0.00 | 0.00 | 0.00 | 93 | 1012.3 |
| 20260508024205 | 0 | 135 | 1.6 | 3.2 | 0.00 | 0.00 | 0.00 | 93 | 1012.2 |
| 20260508023704 | 0 | 135 | 0.0 | 3.2 | 0.00 | 0.00 | 0.00 | 93 | 1012.3 |
| 20260508023205 | 1 | 137 | 0.0 | 0.0 | 0.00 | 0.00 | 0.00 | 93 | 1012.2 |
| 20260508022705 | 1 | 137 | 0.0 | 0.0 | 0.00 | 0.00 | 0.00 | 93 | 1012.2 |
| 20260508022205 | 1 | 137 | 0.0 | 0.0 | 0.00 | 0.00 | 0.00 | 93 | 1012.3 |
| 20260508021705 | 1 | 137 | 0.0 | 3.2 | 0.00 | 0.00 | 0.00 | 93 | 1012.5 |
| 20260508021205 | 1 | 137 | 0.0 | 3.2 | 0.00 | 0.00 | 0.00 | 93 | 1012.5 |
| 20260508020704 | 1 | 135 | 0.0 | 3.2 | 0.00 | 0.00 | 0.00 | 93 | 1012.5 |
| 20260508020204 | 1 | 137 | 3.2 | 0.0 | 0.00 | 0.00 | 0.00 | 93 | 1012.6 |
| 20260508015204 | 1 | 137 | 0.0 | 3.2 | 0.00 | 0.00 | 0.00 | 93 | 1012.6 |
| 20260508014705 | 1 | 137 | 0.0 | 3.2 | 0.00 | 0.00 | 0.00 | 93 | 1012.6 |
| 20260508013705 | 1 | 137 | 0.0 | 3.2 | 0.00 | 0.00 | 0.00 | 93 | 1012.8 |
| 20260508013205 | 1 | 137 | 0.0 | 3.2 | 0.00 | 0.00 | 0.00 | 92 | 1012.8 |
| 20260508012205 | 1 | 137 | 1.6 | 6.4 | 0.00 | 0.00 | 0.00 | 93 | 1012.8 |
| 20260508011204 | 1 | 137 | 3.2 | 4.8 | 0.00 | 0.00 | 0.00 | 92 | 1013.0 |
| 20260508010705 | 1 | 106 | 0.0 | 4.8 | 0.00 | 0.00 | 0.00 | 92 | 1013.0 |
| 20260508010204 | 1 | 104 | 3.2 | 4.8 | 0.00 | 0.00 | 0.00 | 92 | 1013.1 |
| 20260508005704 | 1 | 197 | 1.6 | 4.8 | 0.00 | 0.00 | 0.00 | 93 | 1013.1 |
| 20260508005205 | 1 | 199 | 3.2 | 0.0 | 0.00 | 0.00 | 0.00 | 93 | 1013.1 |
| 20260508004705 | 1 | 319 | 0.0 | 0.0 | 0.00 | 0.00 | 0.00 | 93 | 1013.1 |
| 20260508004205 | 1 | 319 | 0.0 | 0.0 | 0.00 | 0.00 | 0.00 | 93 | 1013.2 |
| 20260508003705 | 1 | 319 | 0.0 | 0.0 | 0.00 | 0.00 | 0.00 | 93 | 1013.3 |
| 20260508003205 | 1 | 319 | 0.0 | 0.0 | 0.00 | 0.00 | 0.00 | 92 | 1013.4 |
| 20260508002704 | 1 | 319 | 0.0 | 0.0 | 0.00 | 0.00 | 0.00 | 92 | 1013.3 |
| 20260508001705 | 1 | 319 | 0.0 | 0.0 | 0.00 | 0.00 | 0.00 | 92 | 1013.5 |
| 20260508001205 | 1 | 319 | 0.0 | 0.0 | 0.00 | 0.00 | 0.00 | 92 | 1013.6 |
| 20260508000704 | 1 | 319 | 0.0 | 0.0 | 0.00 | 0.00 | 0.00 | 92 | 1013.6 |
| 20260508000205 | 1 | 319 | 0.0 | 0.0 | 0.00 | 0.00 | 0.00 | 92 | 1013.6 |
| 20260507235705 | 1 | 319 | 0.0 | 0.0 | 0.00 | 0.00 | 0.00 | 92 | 1013.8 |
| 20260507235205 | 1 | 319 | 0.0 | 0.0 | 0.00 | 0.00 | 0.00 | 91 | 1013.8 |
| 20260507234704 | 1 | 319 | 0.0 | 0.0 | 0.00 | 0.00 | 0.00 | 91 | 1013.8 |
| 20260507234205 | 1 | 319 | 0.0 | 0.0 | 0.00 | 0.00 | 0.00 | 92 | 1013.8 |
| 20260507233705 | 1 | 319 | 0.0 | 1.6 | 0.00 | 0.00 | 0.00 | 91 | 1013.9 |
| 20260507232704 | 1 | 319 | 0.0 | 3.2 | 0.00 | 0.00 | 0.00 | 91 | 1013.9 |
| 20260507232225 | 1 | 319 | 0.0 | 3.2 | 0.00 | 0.00 | 0.00 | 91 | 1014.0 |
| 20260507231704 | 2 | 319 | 0.0 | 3.2 | 0.00 | 0.00 | 0.00 | 91 | 1014.1 |
| 20260507231205 | 2 | 319 | 0.0 | 4.8 | 0.00 | 0.00 | 0.00 | 91 | 1014.1 |
| 20260507230704 | 2 | 317 | 0.0 | 6.4 | 0.00 | 0.00 | 0.00 | 91 | 1014.1 |
| 20260507230205 | 2 | 317 | 3.2 | 6.4 | 0.00 | 0.00 | 0.00 | 91 | 1014.2 |
| 20260507225705 | 1 | 316 | 1.6 | 6.4 | 0.00 | 0.00 | 0.00 | 91 | 1014.1 |
| 20260507225204 | 1 | 0 | 3.2 | 4.8 | 0.00 | 0.00 | 0.00 | 91 | 1014.2 |
| 20260507224705 | 1 | 3 | 1.6 | 0.0 | 0.00 | 0.00 | 0.00 | 90 | 1014.1 |
| 20260507223729 | 2 | 100 | 0.0 | 0.0 | 0.00 | 0.00 | 0.00 | 90 | 1014.1 |
| 20260507223204 | 2 | 102 | 0.0 | 0.0 | 0.00 | 0.00 | 0.00 | 90 | 1014.2 |
| 20260507222704 | 2 | 100 | 0.0 | 0.0 | 0.00 | 0.00 | 0.00 | 90 | 1014.2 |
| 20260507222205 | 2 | 100 | 0.0 | 0.0 | 0.00 | 0.00 | 0.00 | 90 | 1014.2 |
| 20260507221705 | 2 | 100 | 0.0 | 0.0 | 0.00 | 0.00 | 0.00 | 90 | 1014.1 |
| 20260507220704 | 2 | 100 | 0.0 | 0.0 | 0.00 | 0.00 | 0.00 | 90 | 1014.1 |
| 20260507215705 | 2 | 100 | 0.0 | 0.0 | 0.00 | 0.00 | 0.00 | 90 | 1014.1 |
| 20260507215205 | 2 | 100 | 0.0 | 0.0 | 0.00 | 0.00 | 0.00 | 89 | 1014.2 |
| 20260507214705 | 2 | 100 | 0.0 | 0.0 | 0.00 | 0.00 | 0.00 | 89 | 1014.2 |
| 20260507213205 | 2 | 100 | 0.0 | 0.0 | 0.00 | 0.00 | 0.00 | 89 | 1014.2 |
| 20260507212705 | 2 | 100 | 0.0 | 0.0 | 0.00 | 0.00 | 0.00 | 89 | 1014.2 |
| 20260507212205 | 2 | 100 | 0.0 | 0.0 | 0.00 | 0.00 | 0.00 | 88 | 1014.1 |
| 20260507211704 | 3 | 100 | 0.0 | 3.2 | 0.00 | 0.00 | 0.00 | 88 | 1014.0 |
| 20260507211205 | 3 | 100 | 0.0 | 3.2 | 0.00 | 0.00 | 0.00 | 88 | 1014.0 |
| 20260507210705 | 3 | 100 | 0.0 | 3.2 | 0.00 | 0.00 | 0.00 | 88 | 1014.0 |
| 20260507210221 | 3 | 100 | 0.0 | 0.0 | 0.00 | 0.00 | 0.00 | 88 | 1014.0 |
| 20260507205705 | 3 | 100 | 0.0 | 3.2 | 0.00 | 0.00 | 0.00 | 88 | 1013.8 |
| 20260507205204 | 3 | 100 | 0.0 | 3.2 | 0.00 | 0.00 | 0.00 | 88 | 1013.8 |
| 20260507204704 | 3 | 100 | 0.0 | 4.8 | 0.00 | 0.00 | 0.00 | 87 | 1013.6 |
| 20260507204204 | 3 | 100 | 0.0 | 4.8 | 0.00 | 0.00 | 0.00 | 87 | 1013.6 |
| 20260507203704 | 3 | 100 | 1.6 | 4.8 | 0.00 | 0.00 | 0.00 | 87 | 1013.6 |
| 20260507203204 | 3 | 100 | 3.2 | 3.2 | 0.00 | 0.00 | 0.00 | 86 | 1013.5 |
| 20260507202704 | 4 | 102 | 0.0 | 6.4 | 0.00 | 0.00 | 0.00 | 86 | 1013.5 |
| 20260507202205 | 4 | 102 | 0.0 | 6.4 | 0.00 | 0.00 | 0.00 | 86 | 1013.5 |
| 20260507201705 | 4 | 102 | 1.6 | 6.4 | 0.00 | 0.00 | 0.00 | 85 | 1013.5 |
| 20260507201204 | 4 | 102 | 3.2 | 4.8 | 0.00 | 0.00 | 0.00 | 84 | 1013.4 |
| 20260507200704 | 5 | 142 | 0.0 | 0.0 | 0.00 | 0.00 | 0.00 | 84 | 1013.3 |
| 20260507200204 | 5 | 142 | 0.0 | 4.8 | 0.00 | 0.00 | 0.00 | 84 | 1013.2 |
| 20260507195705 | 5 | 142 | 0.0 | 6.4 | 0.00 | 0.00 | 0.00 | 83 | 1013.0 |
| 20260507194705 | 5 | 142 | 3.2 | 6.4 | 0.00 | 0.00 | 0.00 | 82 | 1013.0 |
| 20260507194205 | 6 | 140 | 4.8 | 4.8 | 0.00 | 0.00 | 0.00 | 81 | 1013.0 |
| 20260507193705 | 6 | 133 | 1.6 | 3.2 | 0.00 | 0.00 | 0.00 | 80 | 1012.8 |
| 20260507193205 | 6 | 133 | 0.0 | 3.2 | 0.00 | 0.00 | 0.00 | 80 | 1012.8 |
| 20260507192704 | 7 | 133 | 1.6 | 4.8 | 0.00 | 0.00 | 0.00 | 79 | 1012.8 |
| 20260507192205 | 7 | 133 | 1.6 | 4.8 | 0.00 | 0.00 | 0.00 | 78 | 1012.7 |
| 20260507191704 | 7 | 133 | 1.6 | 4.8 | 0.00 | 0.00 | 0.00 | 78 | 1012.7 |
| 20260507191204 | 7 | 134 | 0.0 | 4.8 | 0.00 | 0.00 | 0.00 | 77 | 1012.7 |
| 20260507190705 | 8 | 134 | 0.0 | 4.8 | 0.00 | 0.00 | 0.00 | 76 | 1012.6 |
| 20260507185205 | 8 | 133 | 0.0 | 4.8 | 0.00 | 0.00 | 0.00 | 73 | 1012.5 |
| 20260507184705 | 8 | 133 | 1.6 | 4.8 | 0.00 | 0.00 | 0.00 | 74 | 1012.4 |
| 20260507184205 | 8 | 109 | 1.6 | 8.0 | 0.00 | 0.00 | 0.00 | 74 | 1012.3 |
| 20260507183705 | 8 | 107 | 0.0 | 8.0 | 0.00 | 0.00 | 0.00 | 73 | 1012.2 |
| 20260507183205 | 8 | 106 | 1.6 | 8.0 | 0.00 | 0.00 | 0.00 | 74 | 1012.2 |
| 20260507182705 | 8 | 116 | 4.8 | 8.0 | 0.00 | 0.00 | 0.00 | 74 | 1011.7 |
| 20260507182205 | 8 | 100 | 4.8 | 8.0 | 0.00 | 0.00 | 0.00 | 74 | 1011.7 |
| 20260507181705 | 8 | 103 | 4.8 | 8.0 | 0.00 | 0.00 | 0.00 | 74 | 1011.7 |
| 20260507181205 | 8 | 99 | 4.8 | 8.0 | 0.00 | 0.00 | 0.00 | 74 | 1011.6 |
| 20260507180204 | 9 | 128 | 1.6 | 6.4 | 0.00 | 0.00 | 0.00 | 73 | 1011.9 |
| 20260507175705 | 9 | 131 | 1.6 | 8.0 | 0.00 | 0.00 | 0.00 | 73 | 1012.1 |
| 20260507175205 | 9 | 138 | 3.2 | 8.0 | 0.00 | 0.00 | 0.00 | 73 | 1012.2 |
| 20260507174704 | 9 | 130 | 3.2 | 8.0 | 0.00 | 0.00 | 0.00 | 72 | 1012.1 |
| 20260507174205 | 9 | 142 | 3.2 | 11.3 | 0.00 | 0.00 | 0.00 | 72 | 1012.1 |
| 20260507173704 | 9 | 102 | 3.2 | 11.3 | 0.00 | 0.00 | 0.00 | 70 | 1012.1 |
| 20260507173205 | 9 | 71 | 4.8 | 11.3 | 0.00 | 0.00 | 0.00 | 68 | 1011.9 |
| 20260507172705 | 10 | 90 | 4.8 | 8.0 | 0.00 | 0.00 | 0.00 | 69 | 1011.9 |
| 20260507172205 | 10 | 83 | 4.8 | 11.3 | 0.00 | 0.00 | 0.00 | 70 | 1011.9 |
| 20260507171704 | 10 | 188 | 3.2 | 14.5 | 0.00 | 0.00 | 0.00 | 68 | 1011.9 |
| 20260507171223 | 10 | 155 | 4.8 | 14.5 | 0.00 | 0.00 | 0.00 | 69 | 1011.9 |
| 20260507170705 | 10 | 118 | 4.8 | 14.5 | 0.00 | 0.00 | 0.00 | 68 | 1011.9 |
| 20260507170205 | 10 | 196 | 9.7 | 14.5 | 0.00 | 0.00 | 0.00 | 67 | 1011.9 |
| 20260507165204 | 10 | 172 | 1.6 | 17.7 | 0.00 | 0.00 | 0.00 | 67 | 1011.9 |
| 20260507164205 | 10 | 286 | 3.2 | 17.7 | 0.00 | 0.00 | 0.00 | 68 | 1011.6 |
| 20260507163705 | 10 | 96 | 3.2 | 4.8 | 0.00 | 0.00 | 0.00 | 70 | 1011.1 |
| 20260507162704 | 10 | 192 | 0.0 | 6.4 | 0.00 | 0.00 | 0.00 | 71 | 1011.6 |
| 20260507162205 | 10 | 189 | 1.6 | 6.4 | 0.00 | 0.00 | 0.00 | 71 | 1011.5 |
| 20260507161705 | 10 | 182 | 1.6 | 8.0 | 0.00 | 0.00 | 0.00 | 72 | 1011.6 |
| 20260507161205 | 10 | 141 | 3.2 | 11.3 | 0.00 | 0.00 | 0.00 | 72 | 1011.6 |
| 20260507160205 | 10 | 180 | 3.2 | 16.1 | 0.00 | 0.00 | 0.00 | 72 | 1011.6 |
| 20260507155704 | 9 | 179 | 3.2 | 17.7 | 0.00 | 0.00 | 0.00 | 72 | 1011.5 |
| 20260507155204 | 9 | 161 | 3.2 | 17.7 | 0.00 | 0.00 | 0.00 | 73 | 1011.4 |
| 20260507154705 | 9 | 159 | 6.4 | 17.7 | 0.00 | 0.00 | 0.00 | 72 | 1011.3 |
| 20260507154204 | 10 | 162 | 8.0 | 17.7 | 0.00 | 0.00 | 0.00 | 73 | 1011.3 |
| 20260507153705 | 9 | 107 | 6.4 | 11.3 | 0.00 | 0.00 | 0.00 | 73 | 1011.3 |
| 20260507153205 | 9 | 140 | 4.8 | 16.1 | 0.00 | 0.00 | 0.00 | 73 | 1011.4 |
| 20260507151705 | 10 | 128 | 4.8 | 14.5 | 0.00 | 0.00 | 0.00 | 73 | 1011.5 |
| 20260507151205 | 9 | 130 | 6.4 | 14.5 | 0.00 | 0.00 | 0.00 | 73 | 1011.5 |
| 20260507150705 | 9 | 142 | 4.8 | 17.7 | 0.00 | 0.00 | 0.00 | 73 | 1011.5 |
| 20260507150204 | 9 | 141 | 4.8 | 20.9 | 0.00 | 0.00 | 0.00 | 72 | 1011.8 |
| 20260507145704 | 9 | 59 | 6.4 | 20.9 | 0.00 | 0.00 | 0.00 | 71 | 1011.9 |
| 20260507145205 | 9 | 190 | 8.0 | 20.9 | 0.00 | 0.00 | 0.00 | 70 | 1012.1 |
| 20260507144704 | 10 | 186 | 9.7 | 19.3 | 0.00 | 0.00 | 0.00 | 70 | 1012.2 |
| 20260507144204 | 10 | 130 | 6.4 | 19.3 | 0.00 | 0.00 | 0.00 | 71 | 1012.2 |
| 20260507143704 | 10 | 62 | 4.8 | 16.1 | 0.00 | 0.00 | 0.00 | 72 | 1012.2 |
| 20260507143205 | 10 | 13 | 1.6 | 19.3 | 0.00 | 0.00 | 0.00 | 70 | 1012.2 |
| 20260507142704 | 10 | 185 | 1.6 | 19.3 | 0.00 | 0.00 | 0.00 | 71 | 1012.3 |
| 20260507141705 | 10 | 164 | 6.4 | 17.7 | 0.00 | 0.00 | 0.00 | 71 | 1012.3 |
| 20260507141205 | 10 | 290 | 8.0 | 17.7 | 0.00 | 0.00 | 0.00 | 71 | 1012.3 |
| 20260507140705 | 10 | 289 | 8.0 | 17.7 | 0.00 | 0.00 | 0.00 | 71 | 1012.3 |
| 20260507140205 | 10 | 90 | 4.8 | 20.9 | 0.00 | 0.00 | 0.00 | 72 | 1012.3 |
| 20260507135704 | 10 | 269 | 6.4 | 20.9 | 0.00 | 0.00 | 0.00 | 72 | 1012.4 |
| 20260507135204 | 10 | 214 | 12.9 | 22.5 | 0.00 | 0.00 | 0.00 | 72 | 1012.3 |
| 20260507133705 | 9 | 271 | 12.9 | 20.9 | 0.00 | 0.00 | 0.00 | 70 | 1012.3 |
| 20260507131704 | 11 | 221 | 9.7 | 17.7 | 0.00 | 0.00 | 0.00 | 64 | 1011.9 |
| 20260507131204 | 12 | 265 | 9.7 | 14.5 | 0.00 | 0.00 | 0.00 | 66 | 1011.9 |
| 20260507130704 | 11 | 41 | 4.8 | 17.7 | 0.00 | 0.00 | 0.00 | 65 | 1012.1 |
| 20260507130233 | 11 | 172 | 4.8 | 17.7 | 0.00 | 0.00 | 0.00 | 65 | 1012.2 |
| 20260507125705 | 11 | 157 | 3.2 | 17.7 | 0.00 | 0.00 | 0.00 | 63 | 1012.2 |
| 20260507125205 | 11 | 176 | 8.0 | 20.9 | 0.00 | 0.00 | 0.00 | 64 | 1012.3 |
| 20260507124704 | 11 | 121 | 3.2 | 20.9 | 0.00 | 0.00 | 0.00 | 62 | 1012.3 |
| 20260507124204 | 11 | 54 | 4.8 | 19.3 | 0.00 | 0.00 | 0.00 | 62 | 1012.4 |
| 20260507123704 | 11 | 107 | 3.2 | 17.7 | 0.00 | 0.00 | 0.00 | 66 | 1012.4 |
| 20260507123205 | 11 | 190 | 3.2 | 17.7 | 0.00 | 0.00 | 0.00 | 67 | 1012.4 |
| 20260507122706 | 11 | 278 | 8.0 | 17.7 | 0.00 | 0.00 | 0.00 | 68 | 1012.4 |
| 20260507122205 | 10 | 41 | 4.8 | 17.7 | 0.00 | 0.00 | 0.00 | 70 | 1012.4 |
| 20260507121704 | 10 | 159 | 8.0 | 17.7 | 0.00 | 0.00 | 0.00 | 75 | 1012.6 |
| 20260507121204 | 10 | 102 | 12.9 | 19.3 | 0.00 | 0.00 | 0.00 | 74 | 1012.7 |
| 20260507120704 | 10 | 145 | 6.4 | 19.3 | 0.00 | 0.00 | 0.00 | 74 | 1012.7 |
| 20260507120204 | 10 | 144 | 6.4 | 19.3 | 0.00 | 0.00 | 0.00 | 73 | 1013.0 |
| 20260507114705 | 10 | 133 | 4.8 | 45.1 | 0.00 | 0.00 | 0.00 | 71 | 1013.0 |
| 20260507113704 | 10 | 131 | 8.0 | 25.7 | 0.00 | 0.00 | 0.00 | 67 | 1012.8 |
| 20260507113205 | 10 | 173 | 11.3 | 24.1 | 0.00 | 0.00 | 0.00 | 68 | 1012.8 |
| 20260507112705 | 10 | 186 | 3.2 | 24.1 | 0.00 | 0.00 | 0.00 | 66 | 1012.8 |
| 20260507112205 | 10 | 216 | 12.9 | 22.5 | 0.00 | 0.00 | 0.00 | 65 | 1013.0 |
| 20260507111705 | 10 | 45 | 6.4 | 22.5 | 0.00 | 0.00 | 0.00 | 64 | 1012.8 |
| 20260507111227 | 10 | 107 | 9.7 | 20.9 | 0.00 | 0.00 | 0.00 | 66 | 1013.0 |
| 20260507105704 | 10 | 96 | 9.7 | 22.5 | 0.00 | 0.00 | 0.00 | 64 | 1013.0 |
| 20260507105204 | 11 | 80 | 9.7 | 22.5 | 0.00 | 0.00 | 0.00 | 65 | 1013.1 |
| 20260507104705 | 11 | 144 | 9.7 | 20.9 | 0.00 | 0.00 | 0.00 | 65 | 1013.0 |
| 20260507103705 | 10 | 137 | 11.3 | 19.3 | 0.00 | 0.00 | 0.00 | 67 | 1013.1 |
| 20260507103205 | 10 | 85 | 8.0 | 17.7 | 0.00 | 0.00 | 0.00 | 70 | 1013.1 |
| 20260507102705 | 10 | 80 | 8.0 | 17.7 | 0.00 | 0.00 | 0.00 | 74 | 1013.1 |
| 20260507102205 | 9 | 96 | 9.7 | 17.7 | 0.00 | 0.00 | 0.00 | 73 | 1013.1 |
| 20260507100705 | 8 | 131 | 8.0 | 25.7 | 0.00 | 0.00 | 0.00 | 74 | 1013.1 |
| 20260507095704 | 8 | 96 | 9.7 | 30.6 | 0.00 | 0.00 | 0.00 | 73 | 1013.1 |
| 20260507095205 | 8 | 145 | 12.9 | 30.6 | 0.00 | 0.00 | 0.00 | 74 | 1013.1 |
| 20260507094704 | 8 | 130 | 16.1 | 30.6 | 0.00 | 0.00 | 0.00 | 74 | 1013.1 |
| 20260507094205 | 8 | 171 | 11.3 | 29.0 | 0.00 | 0.00 | 0.00 | 74 | 1013.1 |
| 20260507093705 | 8 | 151 | 12.9 | 24.1 | 0.00 | 0.00 | 0.00 | 73 | 1013.0 |
| 20260507093204 | 8 | 164 | 9.7 | 24.1 | 0.00 | 0.00 | 0.00 | 72 | 1012.8 |
| 20260507092705 | 8 | 111 | 12.9 | 22.5 | 0.00 | 0.00 | 0.00 | 71 | 1013.0 |
| 20260507092205 | 8 | 80 | 8.0 | 22.5 | 0.00 | 0.00 | 0.00 | 70 | 1013.0 |
| 20260507091705 | 9 | 138 | 9.7 | 22.5 | 0.00 | 0.00 | 0.00 | 70 | 1012.8 |
| 20260507090732 | 8 | 154 | 8.0 | 20.9 | 0.00 | 0.00 | 0.00 | 71 | 1012.7 |
| 20260507085704 | 8 | 116 | 8.0 | 27.4 | 0.00 | 0.00 | 0.00 | 72 | 1012.7 |
| 20260507085204 | 8 | 157 | 11.3 | 27.4 | 0.00 | 0.00 | 0.00 | 71 | 1012.5 |
| 20260507084704 | 8 | 148 | 11.3 | 27.4 | 0.00 | 0.00 | 0.00 | 71 | 1012.5 |
| 20260507084204 | 8 | 185 | 8.0 | 29.0 | 0.00 | 0.00 | 0.00 | 71 | 1012.5 |
| 20260507083704 | 8 | 166 | 11.3 | 29.0 | 0.00 | 0.00 | 0.00 | 70 | 1012.3 |
| 20260507083205 | 8 | 172 | 12.9 | 29.0 | 0.00 | 0.00 | 0.00 | 71 | 1012.3 |
| 20260507082705 | 8 | 118 | 9.7 | 25.7 | 0.00 | 0.00 | 0.00 | 70 | 1012.4 |
| 20260507082205 | 8 | 140 | 11.3 | 24.1 | 0.00 | 0.00 | 0.00 | 69 | 1012.5 |
| 20260507081205 | 9 | 99 | 9.7 | 22.5 | 0.00 | 0.00 | 0.00 | 67 | 1012.5 |
| 20260507080705 | 10 | 125 | 9.7 | 22.5 | 0.00 | 0.00 | 0.00 | 65 | 1012.5 |
| 20260507080204 | 10 | 117 | 4.8 | 22.5 | 0.00 | 0.00 | 0.00 | 65 | 1012.4 |
| 20260507075205 | 10 | 82 | 9.7 | 20.9 | 0.00 | 0.00 | 0.00 | 67 | 1012.3 |
| 20260507074704 | 10 | 120 | 8.0 | 20.9 | 0.00 | 0.00 | 0.00 | 66 | 1012.5 |
| 20260507074205 | 10 | 100 | 9.7 | 25.7 | 0.00 | 0.00 | 0.00 | 66 | 1012.5 |
| 20260507073705 | 9 | 138 | 4.8 | 25.7 | 0.00 | 0.00 | 0.00 | 65 | 1012.4 |
| 20260507073204 | 10 | 159 | 9.7 | 25.7 | 0.00 | 0.00 | 0.00 | 63 | 1012.3 |
| 20260507072705 | 10 | 140 | 9.7 | 19.3 | 0.00 | 0.00 | 0.00 | 65 | 1012.2 |
| 20260507072204 | 10 | 162 | 3.2 | 16.1 | 0.00 | 0.00 | 0.00 | 68 | 1012.2 |
| 20260507071705 | 9 | 83 | 8.0 | 16.1 | 0.00 | 0.00 | 0.00 | 71 | 1012.2 |
| 20260507071204 | 8 | 124 | 3.2 | 16.1 | 0.00 | 0.00 | 0.00 | 69 | 1012.1 |
| 20260507070704 | 8 | 99 | 8.0 | 11.3 | 0.00 | 0.00 | 0.00 | 72 | 1012.2 |
| 20260507070204 | 8 | 92 | 6.4 | 11.3 | 0.00 | 0.00 | 0.00 | 73 | 1012.2 |
| 20260507065705 | 8 | 137 | 4.8 | 11.3 | 0.00 | 0.00 | 0.00 | 74 | 1012.2 |
| 20260507065205 | 7 | 111 | 6.4 | 14.5 | 0.00 | 0.00 | 0.00 | 76 | 1012.2 |
| 20260507064704 | 7 | 145 | 3.2 | 14.5 | 0.00 | 0.00 | 0.00 | 75 | 1012.3 |
| 20260507064205 | 7 | 121 | 4.8 | 14.5 | 0.00 | 0.00 | 0.00 | 75 | 1012.3 |
| 20260507063705 | 6 | 104 | 6.4 | 9.7 | 0.00 | 0.00 | 0.00 | 76 | 1012.2 |
| 20260507063205 | 6 | 154 | 4.8 | 9.7 | 0.00 | 0.00 | 0.00 | 77 | 1012.1 |
| 20260507062705 | 6 | 118 | 3.2 | 11.3 | 0.00 | 0.00 | 0.00 | 78 | 1012.1 |
| 20260507062204 | 6 | 130 | 4.8 | 11.3 | 0.00 | 0.00 | 0.00 | 78 | 1012.1 |
| 20260507061705 | 6 | 131 | 3.2 | 11.3 | 0.00 | 0.00 | 0.00 | 79 | 1012.1 |
| 20260507061205 | 6 | 99 | 3.2 | 9.7 | 0.00 | 0.00 | 0.00 | 80 | 1012.1 |
| 20260507060705 | 6 | 134 | 4.8 | 9.7 | 0.00 | 0.00 | 0.00 | 80 | 1012.1 |
| 20260507055704 | 5 | 117 | 3.2 | 14.5 | 0.00 | 0.00 | 0.00 | 81 | 1011.9 |
| 20260507054704 | 5 | 172 | 3.2 | 8.0 | 0.00 | 0.00 | 0.00 | 82 | 1011.8 |
| 20260507053704 | 5 | 130 | 0.0 | 8.0 | 0.00 | 0.00 | 0.00 | 83 | 1011.8 |
| 20260507053205 | 5 | 127 | 3.2 | 9.7 | 0.00 | 0.00 | 0.00 | 83 | 1011.7 |
| 20260507051704 | 4 | 257 | 1.6 | 6.4 | 0.00 | 0.00 | 0.00 | 85 | 1011.7 |
| 20260507050705 | 3 | 159 | 1.6 | 6.4 | 0.00 | 0.00 | 0.00 | 86 | 1011.7 |
| 20260507050204 | 3 | 118 | 3.2 | 6.4 | 0.00 | 0.00 | 0.00 | 86 | 1011.7 |
| 20260507045705 | 3 | 227 | 1.6 | 6.4 | 0.00 | 0.00 | 0.00 | 86 | 1011.7 |
| 20260507045204 | 3 | 214 | 3.2 | 6.4 | 0.00 | 0.00 | 0.00 | 86 | 1011.7 |
| 20260507044704 | 3 | 210 | 1.6 | 6.4 | 0.00 | 0.00 | 0.00 | 86 | 1011.7 |
| 20260507044204 | 3 | 216 | 1.6 | 4.8 | 0.00 | 0.00 | 0.00 | 86 | 1011.7 |
| 20260507043705 | 3 | 278 | 0.0 | 4.8 | 0.00 | 0.00 | 0.00 | 86 | 1011.7 |
| 20260507043204 | 3 | 275 | 1.6 | 3.2 | 0.00 | 0.00 | 0.00 | 86 | 1011.8 |
| 20260507042704 | 3 | 272 | 0.0 | 6.4 | 0.00 | 0.00 | 0.00 | 86 | 1011.8 |
| 20260507041704 | 4 | 0 | 0.0 | 6.4 | 0.00 | 0.00 | 0.00 | 87 | 1012.1 |
| 20260507041204 | 3 | 317 | 0.0 | 6.4 | 0.00 | 0.00 | 0.00 | 87 | 1012.1 |
| 20260507040728 | 3 | 354 | 3.2 | 8.0 | 0.00 | 0.00 | 0.00 | 87 | 1011.9 |
| 20260507040204 | 4 | 269 | 0.0 | 8.0 | 0.00 | 0.00 | 0.00 | 88 | 1011.9 |
| 20260507035704 | 3 | 233 | 0.0 | 8.0 | 0.00 | 0.00 | 0.00 | 88 | 1011.9 |
| 20260507035204 | 3 | 147 | 3.2 | 8.0 | 0.00 | 0.00 | 0.00 | 89 | 1011.9 |
| 20260507034705 | 3 | 110 | 1.6 | 9.7 | 0.00 | 0.00 | 0.00 | 89 | 1011.9 |